Regional Weather Roundup
Issued by NWS

Home | Current Version | Previous Version | Graphics & Text | Print | Product List | Glossary On
Versions: 1 2 3 4 5 6 7 8 9 10 11 12 13 14 15 16 17 18 19 20 21 22 23 24 25 26 27 28 29 30 31 32 33 34 35 36 37 38 39 40 41 42 43 44 45 46 47 48 49 50
000
ASUS43 KMKX 241059
RWRWI

WISCONSIN REGIONAL WEATHER ROUNDUP
NATIONAL WEATHER SERVICE MILWAUKEE/SULLIVAN WI
500 AM CST TUE JAN 24 2017

NOTE: "FAIR" INDICATES FEW OR NO CLOUDS BELOW 12,000 FEET WITH NO
SIGNIFICANT WEATHER AND/OR OBSTRUCTIONS TO VISIBILITY.

WIZ001-002-006>008-014>016-023>028-241200-
NORTHWEST WISCONSIN

CITY           SKY/WX    TMP DP  RH WIND       PRES   REMARKS
SUPERIOR ARPT  CLOUDY    32  30  92 W3        29.86S
ASHLAND        CLOUDY    33  32  96 SW6       29.85R WCI  28
HAYWARD        CLOUDY    33  31  92 CALM      29.84S
SIREN          CLOUDY    31  31  99 CALM      29.86F FOG
CUMBERLAND     CLOUDY    32  30  93 CALM      29.84F FOG
RICE LAKE      CLOUDY    32  32 100 CALM      29.86F FOG
CHETEK         CLOUDY    32  32  99 CALM      29.85F FOG
LADYSMITH      CLOUDY    33  32  99 W5        29.86S FOG     WCI  28
EAU CLAIRE     NOT AVBL
MENOMONIE        N/A    N/A N/A N/A MISG        N/A
NEW RICHMOND   CLOUDY    31  31 100 NW5       29.86S FOG     WCI  26
OSCEOLA        CLOUDY    32  32 100 CALM      29.89F
$$

WIZ003>005-009-010-017-018-241200-
NORTH CENTRAL WISCONSIN

CITY           SKY/WX    TMP DP  RH WIND       PRES   REMARKS
MANITOWISH WTR CLOUDY    32  32 100 W6        29.80S WCI  26
ARBOR VITAE    CLOUDY    34  33  96 NW5       29.80S WCI  30
WOODRUFF       CLOUDY    34  33  96 NW5       29.80S WCI  30
RHINELANDER    CLOUDY    34  34 100 NW6       29.80S WCI  29
EAGLE RIVER    CLOUDY    33  33 100 NW6       29.79S FOG     WCI  27
LAND O LAKES   CLOUDY    33  33 100 NW5       29.80S FOG     WCI  29
PHILLIPS       CLOUDY    31  31 100 CALM      29.82R
TOMAHAWK       CLOUDY    32  32  99 W5        29.82S WCI  27
MEDFORD        CLOUDY    32  31  96 W5        29.81S WCI  27
MERRILL        CLOUDY    33  33 100 CALM        N/A
$$

WIZ029-030-035-036-043>047-241200-
CENTRAL WISCONSIN

CITY           SKY/WX    TMP DP  RH WIND       PRES   REMARKS
WAUSAU         CLOUDY    33  32  96 NW6       29.81R WCI  28
MOSINEE        CLOUDY    32  32 100 NW5       29.82S WCI  27
MARSHFIELD     CLOUDY    33  31  92 NW6       29.82R FOG     WCI  28
STEVENS POINT  CLOUDY    32  32 100 NW3       29.83R
WAUPACA        CLOUDY    37  36  96 CALM      29.82S FOG
WAUTOMA        CLOUDY    34  33  96 W3        29.84S
WISC RAPIDS    CLOUDY    34  33  96 NW5       29.84R WCI  30
CAMP DOUGLAS   NOT AVBL
$$

WIZ011>013-019>022-031-037>040-048>050-241200-
NORTHEAST WISCONSIN

CITY           SKY/WX    TMP DP  RH WIND       PRES   REMARKS
ANTIGO         FOG       33  33 100 NW3       29.80S VSB 3/4
SHAWANO        CLOUDY    37  34  90 CALM      29.82S
OCONTO         CLOUDY    34  34 100 CALM      29.81S
STURGEON BAY   FOG       33  32  96 W3        29.81S VSB 1/4
GREEN BAY      CLOUDY    36  35  96 NW5       29.81S WCI  32
MANITOWOC      NOT AVBL
APPLETON       NOT AVBL
CLINTONVILLE   CLOUDY    34  34 100 W3        29.82S
OSHKOSH        CLOUDY    35  33  92 W5        29.82R FOG     WCI  31
$$

WIZ032>034-041-042-053>061-241200-
SOUTHWEST WISCONSIN

CITY           SKY/WX    TMP DP  RH WIND       PRES   REMARKS
LA CROSSE      CLOUDY    35  31  85 CALM      29.87R
SPARTA         CLOUDY    32  32 100 CALM      29.87R FOG
VIROQUA        CLOUDY    32  32 100 CALM      29.84R
BOSCOBEL       CLOUDY    34  32  92 CALM      29.87S
PRAIRIE DU CHI CLOUDY    33  31  92 CALM      29.87R
PLATTEVILLE    CLOUDY    33  33 100 NW3       29.85S
$$

WIZ056-057-062-063-064-067-068-241200-
SOUTH CENTRAL WISCONSIN

CITY           SKY/WX    TMP DP  RH WIND       PRES   REMARKS
REEDSBURG      CLOUDY    33  33 100 W3        29.84S
BARABOO/DELLS  CLOUDY    33  32  96 CALM      29.83S
LONE ROCK      NOT AVBL
MINERAL POINT  CLOUDY    34  34 100 CALM      29.84S
MADISON        CLOUDY    34  31  88 W5        29.86R WCI  30
MIDDLETON      CLOUDY    35  35  99 NW7       29.85R WCI  29
WATERTOWN      CLOUDY    34  34 100 W5        29.83S WCI  30
MONROE         CLOUDY    32  32 100 W7        29.84R WCI  26
JANESVILLE     CLOUDY    34  34 100 NW5       29.84S WCI  30
$$

WIZ051-052-058>065-066-070>072-241200-
SOUTHEAST WISCONSIN

CITY           SKY/WX    TMP DP  RH WIND       PRES   REMARKS
MILWAUKEE      CLOUDY    37  34  89 W10       29.82F WCI  30
WAUKESHA       CLOUDY    32  32 100 NW6       29.83S FOG     WCI  26
MILWAUKEE/TIMM CLOUDY    34  32  93 NW7       29.83S FOG     WCI  28
RACINE         CLOUDY    36  34  92 W6        29.84S WCI  31
KENOSHA        CLOUDY    36  33  89 W7        29.83R WCI  30
FOND DU LAC    CLOUDY    35  32  88 W7        29.82S FOG     WCI  29
SHEBOYGAN      CLOUDY    35  33  92 NW7       29.81S FOG     WCI  29
WEST BEND      CLOUDY    34  34 100 W7        29.82S FOG     WCI  28
JUNEAU         CLOUDY    33  33 100 CALM      29.83F FOG
$$

LSZ147-162-241200-
LAKE SUPERIOR

STATION/POSITION TIME  TEMP    WIND        PRES    WAVE
                       AIR SEA DIR/SP/G            HT/PER
                 (UTC) (F)     (DEG/KT/KT) (MB)    (FT/S)
DEVILS ISLAND    1000   34     230/ 11/ 12 1011.0S
PORT WING        1040   33     250/  5/  7 1011.2S
SAXON HARBOR     1040   33        CALM     1010.5S
$$

LMZ867-665-643>646-241200-
LAKE MICHIGAN

STATION/POSITION TIME  TEMP    WIND        PRES    WAVE
                       AIR SEA DIR/SP/G            HT/PER
                 (UTC) (F)     (DEG/KT/KT) (MB)    (FT/S)
NORTHPORT PIER   1040   34     290/  4/  7 1009.1S
SISTER BAY       1005   33        CALM       N/A
KEWAUNEE LAKESHO 1030   35      CALM  /  2 1009.0R
SHEBOYGAN LAKESH 1000   36     280/ 10/ 11 1009.6R
PORT WASHINGTON  1040   36     290/  5/ 10 1010.8S
KENOSHA   LAKESH 1000   37     300/  6/  9 1010.2
$$

TC  - TEMPERATURE IN CELSIUS
VSB - VISIBILITY IN STATUTE MILES
WCI - WIND CHILL INDEX
HX  - HEAT INDEX




USA.gov is the U.S. government's official web portal to all federal, state and local government web resources and services.